owner,sensor,date,latitude,longitude,vertical_datum,mass_concentration_of_oxygen_in_sea_water,qcFlag 
DISL,ioos:station:DISL:MHPA:1,2014-01-01T06:30:00Z,30.6671,-87.9365,1.2384025,9.22,1111122 
DISL,ioos:station:DISL:MHPA:1,2014-01-01T07:00:00Z,30.6671,-87.9365,1.2231624,9.16,1111122 
DISL,ioos:station:DISL:MHPA:1,2014-01-01T07:30:00Z,30.6671,-87.9365,1.1832336,9.18,1111122 
DISL,ioos:station:DISL:MHPA:1,2014-01-01T08:00:00Z,30.6671,-87.9365,1.1365992,9.15,1111122 
DISL,ioos:station:DISL:MHPA:1,2014-01-01T08:30:00Z,30.6671,-87.9365,1.1030712,8.96,1111122 
DISL,ioos:station:DISL:MHPA:1,2014-01-01T09:00:00Z,30.6671,-87.9365,1.0668,8.95,1111122 
DISL,ioos:station:DISL:MHPA:1,2014-01-01T09:30:00Z,30.6671,-87.9365,1.0229088,9.02,1111122 
DISL,ioos:station:DISL:MHPA:1,2014-01-01T10:00:00Z,30.6671,-87.9365,0.9909048,8.97,1111122 
DISL,ioos:station:DISL:MHPA:1,2014-01-01T10:30:00Z,30.6671,-87.9365,0.961644,8.95,1111122 
DISL,ioos:station:DISL:MHPA:1,2014-01-01T11:00:00Z,30.6671,-87.9365,0.9336024,8.78,1111122 
DISL,ioos:station:DISL:MHPA:1,2014-01-01T11:30:00Z,30.6671,-87.9365,0.90921843,8.72,1111122 
DISL,ioos:station:DISL:MHPA:1,2014-01-01T12:00:00Z,30.6671,-87.9365,0.8860536,8.9,1111122 
DISL,ioos:station:DISL:MHPA:1,2014-01-01T12:30:00Z,30.6671,-87.9365,0.8601456,8.97,1111122 
DISL,ioos:station:DISL:MHPA:1,2014-01-01T13:00:00Z,30.6671,-87.9365,0.8345424,9.07,1111122 
DISL,ioos:station:DISL:MHPA:1,2014-01-01T13:30:00Z,30.6671,-87.9365,0.809244,9.04,1111122 
DISL,ioos:station:DISL:MHPA:1,2014-01-01T14:00:00Z,30.6671,-87.9365,0.78760326,9.14,1111122 
DISL,ioos:station:DISL:MHPA:1,2014-01-01T14:30:00Z,30.6671,-87.9365,0.76962006,9.11,1111122 
DISL,ioos:station:DISL:MHPA:1,2014-01-01T15:00:00Z,30.6671,-87.9365,0.75559926,9.14,1111122 
DISL,ioos:station:DISL:MHPA:1,2014-01-01T15:30:00Z,30.6671,-87.9365,0.7434072,8.99,1111122 
DISL,ioos:station:DISL:MHPA:1,2014-01-01T16:00:00Z,30.6671,-87.9365,0.7327392,9.08,1111122 
DISL,ioos:station:DISL:MHPA:1,2014-01-01T16:30:00Z,30.6671,-87.9365,0.7251192,9.11,1111122 
DISL,ioos:station:DISL:MHPA:1,2014-01-01T17:00:00Z,30.6671,-87.9365,0.7211568,9.06,1111122 
DISL,ioos:station:DISL:MHPA:1,2014-01-01T17:30:00Z,30.6671,-87.9365,0.717804,9.09,1111122 
DISL,ioos:station:DISL:MHPA:1,2014-01-01T18:00:00Z,30.6671,-87.9365,0.7168896,9.12,1111122 
DISL,ioos:station:DISL:MHPA:1,2014-01-01T18:30:00Z,30.6671,-87.9365,0.7220712,9.13,1111122 
DISL,ioos:station:DISL:MHPA:1,2014-01-01T19:00:00Z,30.6671,-87.9365,0.7418832,9.22,1111122 
DISL,ioos:station:DISL:MHPA:1,2014-01-01T19:30:00Z,30.6671,-87.9365,0.7799832,9.08,1111122 
DISL,ioos:station:DISL:MHPA:1,2014-01-01T20:00:00Z,30.6671,-87.9365,0.8369808,8.88,1111122 
DISL,ioos:station:DISL:MHPA:1,2014-01-01T20:30:00Z,30.6671,-87.9365,0.9049512,8.83,1111122 
DISL,ioos:station:DISL:MHPA:1,2014-01-01T21:00:00Z,30.6671,-87.9365,0.95737684,8.93,1111122 
DISL,ioos:station:DISL:MHPA:1,2014-01-01T21:30:00Z,30.6671,-87.9365,1.0015728,9.31,1111122 
DISL,ioos:station:DISL:MHPA:1,2014-01-01T22:00:00Z,30.6671,-87.9365,1.0351008,9.39,1111122 
DISL,ioos:station:DISL:MHPA:1,2014-01-01T22:30:00Z,30.6671,-87.9365,1.0631424,9.22,1111122 
DISL,ioos:station:DISL:MHPA:1,2014-01-01T23:00:00Z,30.6671,-87.9365,1.0799065,9.24,1111122 
DISL,ioos:station:DISL:MHPA:1,2014-01-01T23:30:00Z,30.6671,-87.9365,1.1045952,9.32,1111122 
DISL,ioos:station:DISL:MHPA:1,2014-01-02T00:00:00Z,30.6671,-87.9365,1.1469624,9.19,1111122 
DISL,ioos:station:DISL:MHPA:1,2014-01-02T00:30:00Z,30.6671,-87.9365,1.1768328,9.32,1111122 
DISL,ioos:station:DISL:MHPA:1,2014-01-02T01:00:00Z,30.6671,-87.9365,1.2137136,9.31,1111122 
DISL,ioos:station:DISL:MHPA:1,2014-01-02T01:30:00Z,30.6671,-87.9365,1.2655296,9.25,1111122 
DISL,ioos:station:DISL:MHPA:1,2014-01-02T02:00:00Z,30.6671,-87.9365,1.286256,9.16,1111122 
DISL,ioos:station:DISL:MHPA:1,2014-01-02T02:30:00Z,30.6671,-87.9365,1.3514832,9.22,1111122 
DISL,ioos:station:DISL:MHPA:1,2014-01-02T03:00:00Z,30.6671,-87.9365,1.383792,9.13,1111122 
DISL,ioos:station:DISL:MHPA:1,2014-01-02T03:30:00Z,30.6671,-87.9365,1.423416,9.17,1111122 
DISL,ioos:station:DISL:MHPA:1,2014-01-02T04:00:00Z,30.6671,-87.9365,1.4529817,9.13,1111122 
DISL,ioos:station:DISL:MHPA:1,2014-01-02T04:30:00Z,30.6671,-87.9365,1.4474952,9.13,1111122 
DISL,ioos:station:DISL:MHPA:1,2014-01-02T05:00:00Z,30.6671,-87.9365,1.4517624,9.13,1111122 
DISL,ioos:station:DISL:MHPA:1,2014-01-02T05:30:00Z,30.6671,-87.9365,1.4438376,8.79,1111122 
DISL,ioos:station:DISL:MHPA:1,2014-01-02T06:00:00Z,30.6671,-87.9365,1.3996416,9.22,1111122 
DISL,ioos:station:DISL:MHPA:1,2014-01-02T06:30:00Z,30.6671,-87.9365,1.4017752,9.19,1111122 
DISL,ioos:station:DISL:MHPA:1,2014-01-02T07:00:00Z,30.6671,-87.9365,1.3630656,9.08,1111122 
DISL,ioos:station:DISL:MHPA:1,2014-01-02T07:30:00Z,30.6671,-87.9365,1.3066777,8.91,1111122 
DISL,ioos:station:DISL:MHPA:1,2014-01-02T08:00:00Z,30.6671,-87.9365,1.2643104,9.04,1111122 
DISL,ioos:station:DISL:MHPA:1,2014-01-02T08:30:00Z,30.6671,-87.9365,1.2362689,9.06,1111122 
DISL,ioos:station:DISL:MHPA:1,2014-01-02T09:00:00Z,30.6671,-87.9365,1.2060937,9.09,1111122 
DISL,ioos:station:DISL:MHPA:1,2014-01-02T09:30:00Z,30.6671,-87.9365,1.1990832,9.03,1111122 
DISL,ioos:station:DISL:MHPA:1,2014-01-02T10:00:00Z,30.6671,-87.9365,1.15824,9.01,1111122 
DISL,ioos:station:DISL:MHPA:1,2014-01-02T10:30:00Z,30.6671,-87.9365,1.1210544,9.04,1111122 
DISL,ioos:station:DISL:MHPA:1,2014-01-02T11:00:00Z,30.6671,-87.9365,1.0823449,9.1,1111122 
DISL,ioos:station:DISL:MHPA:1,2014-01-02T11:30:00Z,30.6671,-87.9365,1.0472928,9.05,1111122 
DISL,ioos:station:DISL:MHPA:1,2014-01-02T12:00:00Z,30.6671,-87.9365,1.0049256,9.06,1111122 
DISL,ioos:station:DISL:MHPA:1,2014-01-02T12:30:00Z,30.6671,-87.9365,0.9717024,9.12,1111122 
DISL,ioos:station:DISL:MHPA:1,2014-01-02T13:00:00Z,30.6671,-87.9365,0.9430512,8.97,1111122 
DISL,ioos:station:DISL:MHPA:1,2014-01-02T13:30:00Z,30.6671,-87.9365,0.9226296,8.94,1111122 
DISL,ioos:station:DISL:MHPA:1,2014-01-02T14:00:00Z,30.6671,-87.9365,0.91287595,9.1,1111122 
DISL,ioos:station:DISL:MHPA:1,2014-01-02T14:30:00Z,30.6671,-87.9365,0.9140952,8.84,1111122 
DISL,ioos:station:DISL:MHPA:1,2014-01-02T15:00:00Z,30.6671,-87.9365,0.89032084,8.87,1111122 
DISL,ioos:station:DISL:MHPA:1,2014-01-02T15:30:00Z,30.6671,-87.9365,0.8775192,8.98,1111122 
DISL,ioos:station:DISL:MHPA:1,2014-01-02T16:00:00Z,30.6671,-87.9365,0.8674608,9.03,1111122 
DISL,ioos:station:DISL:MHPA:1,2014-01-02T16:30:00Z,30.6671,-87.9365,0.85374486,9.29,1111122 
DISL,ioos:station:DISL:MHPA:1,2014-01-02T17:00:00Z,30.6671,-87.9365,0.84582007,9.35,1111122 
DISL,ioos:station:DISL:MHPA:1,2014-01-02T17:30:00Z,30.6671,-87.9365,0.8339328,9.27,1111122 
DISL,ioos:station:DISL:MHPA:1,2014-01-02T18:00:00Z,30.6671,-87.9365,0.8247888,9.24,1111122 
DISL,ioos:station:DISL:MHPA:1,2014-01-02T18:30:00Z,30.6671,-87.9365,0.8193024,9.29,1111122 
DISL,ioos:station:DISL:MHPA:1,2014-01-02T19:00:00Z,30.6671,-87.9365,0.80863446,9.36,1111122 
DISL,ioos:station:DISL:MHPA:1,2014-01-02T19:30:00Z,30.6671,-87.9365,0.7979664,9.43,1111122 
DISL,ioos:station:DISL:MHPA:1,2014-01-02T20:00:00Z,30.6671,-87.9365,0.7860792,9.48,1111122 
DISL,ioos:station:DISL:MHPA:1,2014-01-02T20:30:00Z,30.6671,-87.9365,0.77358246,9.54,1111122 
DISL,ioos:station:DISL:MHPA:1,2014-01-02T21:00:00Z,30.6671,-87.9365,0.7610856,9.55,1111122 
DISL,ioos:station:DISL:MHPA:1,2014-01-02T21:30:00Z,30.6671,-87.9365,0.75438,9.64,1111122 
DISL,ioos:station:DISL:MHPA:1,2014-01-02T22:00:00Z,30.6671,-87.9365,0.7412736,9.62,1111122 
DISL,ioos:station:DISL:MHPA:1,2014-01-02T22:30:00Z,30.6671,-87.9365,0.7260336,9.65,1111122 
DISL,ioos:station:DISL:MHPA:1,2014-01-02T23:00:00Z,30.6671,-87.9365,0.7080504,9.63,1111122 
DISL,ioos:station:DISL:MHPA:1,2014-01-02T23:30:00Z,30.6671,-87.9365,0.694944,9.73,1111122 
DISL,ioos:station:DISL:MHPA:1,2014-01-03T00:00:00Z,30.6671,-87.9365,0.6787896,9.85,1111122 
DISL,ioos:station:DISL:MHPA:1,2014-01-03T00:30:00Z,30.6671,-87.9365,0.66629285,9.88,1111122 
DISL,ioos:station:DISL:MHPA:1,2014-01-03T01:00:00Z,30.6671,-87.9365,0.66233045,9.84,1111122 
DISL,ioos:station:DISL:MHPA:1,2014-01-03T01:30:00Z,30.6671,-87.9365,0.66233045,9.88,1111122 
DISL,ioos:station:DISL:MHPA:1,2014-01-03T02:00:00Z,30.6671,-87.9365,0.6608064,9.89,1111122 
DISL,ioos:station:DISL:MHPA:1,2014-01-03T02:30:00Z,30.6671,-87.9365,0.6547104,9.88,1111122 
DISL,ioos:station:DISL:MHPA:1,2014-01-03T03:00:00Z,30.6671,-87.9365,0.65532005,9.79,1111122 
DISL,ioos:station:DISL:MHPA:1,2014-01-03T03:30:00Z,30.6671,-87.9365,0.6638544,9.87,1111122 
DISL,ioos:station:DISL:MHPA:1,2014-01-03T04:00:00Z,30.6671,-87.9365,0.6757416,9.87,1111122 
DISL,ioos:station:DISL:MHPA:1,2014-01-03T04:30:00Z,30.6671,-87.9365,0.6818376,9.94,1111122 
DISL,ioos:station:DISL:MHPA:1,2014-01-03T05:00:00Z,30.6671,-87.9365,0.68640965,9.98,1111122 
DISL,ioos:station:DISL:MHPA:1,2014-01-03T05:30:00Z,30.6671,-87.9365,0.6897624,9.97,1111122 
DISL,ioos:station:DISL:MHPA:1,2014-01-03T06:00:00Z,30.6671,-87.9365,0.6970776,9.98,1111122 
DISL,ioos:station:DISL:MHPA:1,2014-01-03T06:30:00Z,30.6671,-87.9365,0.71445125,10.03,1111122 
DISL,ioos:station:DISL:MHPA:1,2014-01-03T07:00:00Z,30.6671,-87.9365,0.7418832,10.04,1111122 
DISL,ioos:station:DISL:MHPA:1,2014-01-03T07:30:00Z,30.6671,-87.9365,0.7918704,10.07,1111122 
DISL,ioos:station:DISL:MHPA:1,2014-01-03T08:00:00Z,30.6671,-87.9365,0.8324088,10.07,1111122 
DISL,ioos:station:DISL:MHPA:1,2014-01-03T08:30:00Z,30.6671,-87.9365,0.8372856,10.06,1111122 
DISL,ioos:station:DISL:MHPA:1,2014-01-03T09:00:00Z,30.6671,-87.9365,0.83576167,10.03,1111122 
DISL,ioos:station:DISL:MHPA:1,2014-01-03T09:30:00Z,30.6671,-87.9365,0.827532,10.05,1111122 
DISL,ioos:station:DISL:MHPA:1,2014-01-03T10:00:00Z,30.6671,-87.9365,0.8177784,10.0,1111122 
DISL,ioos:station:DISL:MHPA:1,2014-01-03T10:30:00Z,30.6671,-87.9365,0.8028432,10.01,1111122 
DISL,ioos:station:DISL:MHPA:1,2014-01-03T11:00:00Z,30.6671,-87.9365,0.781812,10.02,1111122 
DISL,ioos:station:DISL:MHPA:1,2014-01-03T11:30:00Z,30.6671,-87.9365,0.7592568,9.99,1111122 
DISL,ioos:station:DISL:MHPA:1,2014-01-03T12:00:00Z,30.6671,-87.9365,0.7379208,10.09,1111122 
DISL,ioos:station:DISL:MHPA:1,2014-01-03T12:30:00Z,30.6671,-87.9365,0.7196328,10.06,1111122 
DISL,ioos:station:DISL:MHPA:1,2014-01-03T13:00:00Z,30.6671,-87.9365,0.7016496,10.0,1111122 
DISL,ioos:station:DISL:MHPA:1,2014-01-03T13:30:00Z,30.6671,-87.9365,0.6876288,10.09,1111122 
DISL,ioos:station:DISL:MHPA:1,2014-01-03T14:00:00Z,30.6671,-87.9365,0.67299837,10.06,1111122 
DISL,ioos:station:DISL:MHPA:1,2014-01-03T14:30:00Z,30.6671,-87.9365,0.6550152,10.13,1111122 
DISL,ioos:station:DISL:MHPA:1,2014-01-03T15:00:00Z,30.6671,-87.9365,0.637032,10.13,1111122 
DISL,ioos:station:DISL:MHPA:1,2014-01-03T15:30:00Z,30.6671,-87.9365,0.62087756,10.11,1111122 
DISL,ioos:station:DISL:MHPA:1,2014-01-03T16:00:00Z,30.6671,-87.9365,0.6056376,10.09,1111122 
DISL,ioos:station:DISL:MHPA:1,2014-01-03T16:30:00Z,30.6671,-87.9365,0.58978796,10.14,1111122 
DISL,ioos:station:DISL:MHPA:1,2014-01-03T17:00:00Z,30.6671,-87.9365,0.5757672,10.13,1111122 
DISL,ioos:station:DISL:MHPA:1,2014-01-03T17:30:00Z,30.6671,-87.9365,0.56601363,10.21,1111122 
DISL,ioos:station:DISL:MHPA:1,2014-01-03T18:00:00Z,30.6671,-87.9365,0.5565648,10.23,1111122 
DISL,ioos:station:DISL:MHPA:1,2014-01-03T18:30:00Z,30.6671,-87.9365,0.54894483,10.23,1111122 
DISL,ioos:station:DISL:MHPA:1,2014-01-03T19:00:00Z,30.6671,-87.9365,0.54223925,10.15,1111122 
DISL,ioos:station:DISL:MHPA:1,2014-01-03T19:30:00Z,30.6671,-87.9365,0.5382768,10.26,1111122 
DISL,ioos:station:DISL:MHPA:1,2014-01-03T20:00:00Z,30.6671,-87.9365,0.5337048,10.3,1111122 
DISL,ioos:station:DISL:MHPA:1,2014-01-03T20:30:00Z,30.6671,-87.9365,0.5337048,10.3,1111122 
DISL,ioos:station:DISL:MHPA:1,2014-01-03T21:00:00Z,30.6671,-87.9365,0.5373624,10.28,1111122 
DISL,ioos:station:DISL:MHPA:1,2014-01-03T21:30:00Z,30.6671,-87.9365,0.5468112,10.33,1111122 
DISL,ioos:station:DISL:MHPA:1,2014-01-03T22:00:00Z,30.6671,-87.9365,0.5611368,10.24,1111122 
DISL,ioos:station:DISL:MHPA:1,2014-01-03T22:30:00Z,30.6671,-87.9365,0.58277756,10.36,1111122 
DISL,ioos:station:DISL:MHPA:1,2014-01-03T23:00:00Z,30.6671,-87.9365,0.61234325,10.41,1111122 
DISL,ioos:station:DISL:MHPA:1,2014-01-03T23:30:00Z,30.6671,-87.9365,0.650748,10.4,1111122 
DISL,ioos:station:DISL:MHPA:1,2014-01-04T00:00:00Z,30.6671,-87.9365,0.68701917,10.44,1111122 
DISL,ioos:station:DISL:MHPA:1,2014-01-04T00:30:00Z,30.6671,-87.9365,0.71445125,10.47,1111122 
DISL,ioos:station:DISL:MHPA:1,2014-01-04T01:00:00Z,30.6671,-87.9365,0.7409688,10.46,1111122 
DISL,ioos:station:DISL:MHPA:1,2014-01-04T01:30:00Z,30.6671,-87.9365,0.7607808,10.29,1111122 
DISL,ioos:station:DISL:MHPA:1,2014-01-04T02:00:00Z,30.6671,-87.9365,0.77754486,10.32,1111122 
DISL,ioos:station:DISL:MHPA:1,2014-01-04T02:30:00Z,30.6671,-87.9365,0.8052816,10.11,1111122 
DISL,ioos:station:DISL:MHPA:1,2014-01-04T03:00:00Z,30.6671,-87.9365,0.8546592,10.24,1111122 
DISL,ioos:station:DISL:MHPA:1,2014-01-04T03:30:00Z,30.6671,-87.9365,0.9116568,10.04,1111122 
DISL,ioos:station:DISL:MHPA:1,2014-01-04T04:00:00Z,30.6671,-87.9365,0.9561576,9.77,1111122 
DISL,ioos:station:DISL:MHPA:1,2014-01-04T04:30:00Z,30.6671,-87.9365,1.0024872,9.87,1111122 
DISL,ioos:station:DISL:MHPA:1,2014-01-04T05:00:00Z,30.6671,-87.9365,1.048512,10.01,1111122 
DISL,ioos:station:DISL:MHPA:1,2014-01-04T05:30:00Z,30.6671,-87.9365,1.0762488,9.97,1111122 
DISL,ioos:station:DISL:MHPA:1,2014-01-04T06:00:00Z,30.6671,-87.9365,1.0768584,10.0,1111122 
DISL,ioos:station:DISL:MHPA:1,2014-01-04T06:30:00Z,30.6671,-87.9365,1.071372,9.97,1111122 
DISL,ioos:station:DISL:MHPA:1,2014-01-04T07:00:00Z,30.6671,-87.9365,1.0802112,9.88,1111122 
DISL,ioos:station:DISL:MHPA:1,2014-01-04T07:30:00Z,30.6671,-87.9365,1.0799065,9.87,1111122 
DISL,ioos:station:DISL:MHPA:1,2014-01-04T08:00:00Z,30.6671,-87.9365,1.0680192,9.95,1111122 
DISL,ioos:station:DISL:MHPA:1,2014-01-04T08:30:00Z,30.6671,-87.9365,1.0521696,9.99,1111122 
DISL,ioos:station:DISL:MHPA:1,2014-01-04T09:00:00Z,30.6671,-87.9365,1.0460736,10.08,1111122 
DISL,ioos:station:DISL:MHPA:1,2014-01-04T09:30:00Z,30.6671,-87.9365,1.0460736,10.06,1111122 
DISL,ioos:station:DISL:MHPA:1,2014-01-04T10:00:00Z,30.6671,-87.9365,1.0421112,10.07,1111122 
DISL,ioos:station:DISL:MHPA:1,2014-01-04T10:30:00Z,30.6671,-87.9365,1.034796,10.1,1111122 
DISL,ioos:station:DISL:MHPA:1,2014-01-04T11:00:00Z,30.6671,-87.9365,1.0155936,10.01,1111122 
DISL,ioos:station:DISL:MHPA:1,2014-01-04T11:30:00Z,30.6671,-87.9365,0.987552,9.87,1111122 
DISL,ioos:station:DISL:MHPA:1,2014-01-04T12:00:00Z,30.6671,-87.9365,0.9595104,9.89,1111122 
DISL,ioos:station:DISL:MHPA:1,2014-01-04T12:30:00Z,30.6671,-87.9365,0.934212,9.92,1111122 
DISL,ioos:station:DISL:MHPA:1,2014-01-04T13:00:00Z,30.6671,-87.9365,0.9076944,9.97,1111122 
DISL,ioos:station:DISL:MHPA:1,2014-01-04T13:30:00Z,30.6671,-87.9365,0.88331044,10.02,1111122 
DISL,ioos:station:DISL:MHPA:1,2014-01-04T14:00:00Z,30.6671,-87.9365,0.8601456,10.07,1111122 
DISL,ioos:station:DISL:MHPA:1,2014-01-04T14:30:00Z,30.6671,-87.9365,0.84124804,10.14,1111122 
DISL,ioos:station:DISL:MHPA:1,2014-01-04T15:00:00Z,30.6671,-87.9365,0.8193024,10.18,1111122 
DISL,ioos:station:DISL:MHPA:1,2014-01-04T15:30:00Z,30.6671,-87.9365,0.8071104,10.22,1111122 
DISL,ioos:station:DISL:MHPA:1,2014-01-04T16:00:00Z,30.6671,-87.9365,0.7952232,10.26,1111122 
DISL,ioos:station:DISL:MHPA:1,2014-01-04T16:30:00Z,30.6671,-87.9365,0.7897368,10.24,1111122 
DISL,ioos:station:DISL:MHPA:1,2014-01-04T17:00:00Z,30.6671,-87.9365,0.7851648,10.2,1111122 
DISL,ioos:station:DISL:MHPA:1,2014-01-04T17:30:00Z,30.6671,-87.9365,0.778764,10.18,1111122 
DISL,ioos:station:DISL:MHPA:1,2014-01-04T18:00:00Z,30.6671,-87.9365,0.774192,10.14,1111122 
DISL,ioos:station:DISL:MHPA:1,2014-01-04T18:30:00Z,30.6671,-87.9365,0.771144,10.07,1111122 
DISL,ioos:station:DISL:MHPA:1,2014-01-04T19:00:00Z,30.6671,-87.9365,0.7690104,10.16,1111122 
DISL,ioos:station:DISL:MHPA:1,2014-01-04T19:30:00Z,30.6671,-87.9365,0.76962006,10.12,1111122 
DISL,ioos:station:DISL:MHPA:1,2014-01-04T20:00:00Z,30.6671,-87.9365,0.778764,10.08,1111122 
DISL,ioos:station:DISL:MHPA:1,2014-01-04T20:30:00Z,30.6671,-87.9365,0.8025384,10.22,1111122 
DISL,ioos:station:DISL:MHPA:1,2014-01-04T21:00:00Z,30.6671,-87.9365,0.8250936,10.11,1111122 
DISL,ioos:station:DISL:MHPA:1,2014-01-04T21:30:00Z,30.6671,-87.9365,0.8540496,9.88,1111122 
DISL,ioos:station:DISL:MHPA:1,2014-01-04T22:00:00Z,30.6671,-87.9365,0.90129364,10.1,1111122 
DISL,ioos:station:DISL:MHPA:1,2014-01-04T22:30:00Z,30.6671,-87.9365,0.93543124,9.68,1111122 
DISL,ioos:station:DISL:MHPA:1,2014-01-04T23:00:00Z,30.6671,-87.9365,0.9576816,9.88,1111122 
DISL,ioos:station:DISL:MHPA:1,2014-01-04T23:30:00Z,30.6671,-87.9365,0.976884,10.07,1111122 
DISL,ioos:station:DISL:MHPA:1,2014-01-05T00:00:00Z,30.6671,-87.9365,1.0098025,9.9,1111122 
DISL,ioos:station:DISL:MHPA:1,2014-01-05T00:30:00Z,30.6671,-87.9365,1.0305288,10.1,1111122 
DISL,ioos:station:DISL:MHPA:1,2014-01-05T01:00:00Z,30.6671,-87.9365,1.033272,10.09,1111122 
DISL,ioos:station:DISL:MHPA:1,2014-01-05T01:30:00Z,30.6671,-87.9365,1.048512,10.01,1111122 
DISL,ioos:station:DISL:MHPA:1,2014-01-05T02:00:00Z,30.6671,-87.9365,1.0823449,10.0,1111122 
DISL,ioos:station:DISL:MHPA:1,2014-01-05T02:30:00Z,30.6671,-87.9365,1.0771632,9.98,1111122 
DISL,ioos:station:DISL:MHPA:1,2014-01-05T03:00:00Z,30.6671,-87.9365,1.0884409,9.96,1111122 
DISL,ioos:station:DISL:MHPA:1,2014-01-05T03:30:00Z,30.6671,-87.9365,1.1128248,10.03,1111122 
DISL,ioos:station:DISL:MHPA:1,2014-01-05T04:00:00Z,30.6671,-87.9365,1.1445241,9.88,1111122 
DISL,ioos:station:DISL:MHPA:1,2014-01-05T04:30:00Z,30.6671,-87.9365,1.1798809,9.98,1111122 
DISL,ioos:station:DISL:MHPA:1,2014-01-05T05:00:00Z,30.6671,-87.9365,1.21158,9.91,1111122 
DISL,ioos:station:DISL:MHPA:1,2014-01-05T05:30:00Z,30.6671,-87.9365,1.2627865,9.81,1111122 
DISL,ioos:station:DISL:MHPA:1,2014-01-05T06:00:00Z,30.6671,-87.9365,1.2896088,9.81,1111122 
DISL,ioos:station:DISL:MHPA:1,2014-01-05T06:30:00Z,30.6671,-87.9365,1.2807697,9.88,1111122 
DISL,ioos:station:DISL:MHPA:1,2014-01-05T07:00:00Z,30.6671,-87.9365,1.2829032,9.79,1111122 
DISL,ioos:station:DISL:MHPA:1,2014-01-05T07:30:00Z,30.6671,-87.9365,1.3036296,9.88,1111122 
DISL,ioos:station:DISL:MHPA:1,2014-01-05T08:00:00Z,30.6671,-87.9365,1.271016,9.79,1111122 
DISL,ioos:station:DISL:MHPA:1,2014-01-05T08:30:00Z,30.6671,-87.9365,1.2499847,9.75,1111122 
DISL,ioos:station:DISL:MHPA:1,2014-01-05T09:00:00Z,30.6671,-87.9365,1.2463273,9.67,1111122 
DISL,ioos:station:DISL:MHPA:1,2014-01-05T09:30:00Z,30.6671,-87.9365,1.2301728,9.64,1111122 
DISL,ioos:station:DISL:MHPA:1,2014-01-05T10:00:00Z,30.6671,-87.9365,1.2161521,9.52,1111122 
DISL,ioos:station:DISL:MHPA:1,2014-01-05T10:30:00Z,30.6671,-87.9365,1.1984736,9.49,1111122 
DISL,ioos:station:DISL:MHPA:1,2014-01-05T11:00:00Z,30.6671,-87.9365,1.1780521,9.58,1111122 
DISL,ioos:station:DISL:MHPA:1,2014-01-05T11:30:00Z,30.6671,-87.9365,1.1527536,9.39,1111122 
DISL,ioos:station:DISL:MHPA:1,2014-01-05T12:00:00Z,30.6671,-87.9365,1.136904,9.59,1111122 
DISL,ioos:station:DISL:MHPA:1,2014-01-05T12:30:00Z,30.6671,-87.9365,1.1073384,9.51,1111122 
DISL,ioos:station:DISL:MHPA:1,2014-01-05T13:00:00Z,30.6671,-87.9365,1.0832592,9.35,1111122 
DISL,ioos:station:DISL:MHPA:1,2014-01-05T13:30:00Z,30.6671,-87.9365,1.0527792,9.51,1111122 
DISL,ioos:station:DISL:MHPA:1,2014-01-05T14:00:00Z,30.6671,-87.9365,1.0326624,9.78,1111122 
DISL,ioos:station:DISL:MHPA:1,2014-01-05T14:30:00Z,30.6671,-87.9365,1.0061449,9.81,1111122 
DISL,ioos:station:DISL:MHPA:1,2014-01-05T15:00:00Z,30.6671,-87.9365,0.9912096,9.74,1111122 
DISL,ioos:station:DISL:MHPA:1,2014-01-05T15:30:00Z,30.6671,-87.9365,0.9805416,9.51,1111122 
DISL,ioos:station:DISL:MHPA:1,2014-01-05T16:00:00Z,30.6671,-87.9365,0.9698736,9.25,1111122 
DISL,ioos:station:DISL:MHPA:1,2014-01-05T16:30:00Z,30.6671,-87.9365,0.9628632,9.28,1111122 
DISL,ioos:station:DISL:MHPA:1,2014-01-05T17:00:00Z,30.6671,-87.9365,0.96347284,9.77,1111122 
DISL,ioos:station:DISL:MHPA:1,2014-01-05T17:30:00Z,30.6671,-87.9365,0.966216,9.61,1111122 
DISL,ioos:station:DISL:MHPA:1,2014-01-05T18:00:00Z,30.6671,-87.9365,0.9695688,9.49,1111122 
DISL,ioos:station:DISL:MHPA:1,2014-01-05T18:30:00Z,30.6671,-87.9365,0.97901756,9.14,1111122 
DISL,ioos:station:DISL:MHPA:1,2014-01-05T19:00:00Z,30.6671,-87.9365,0.9942576,9.01,1111122 
DISL,ioos:station:DISL:MHPA:1,2014-01-05T19:30:00Z,30.6671,-87.9365,1.0219944,9.38,1111122 
DISL,ioos:station:DISL:MHPA:1,2014-01-05T20:00:00Z,30.6671,-87.9365,1.0488168,9.36,1111122 
DISL,ioos:station:DISL:MHPA:1,2014-01-05T20:30:00Z,30.6671,-87.9365,1.0823449,9.72,1111122 
DISL,ioos:station:DISL:MHPA:1,2014-01-05T21:00:00Z,30.6671,-87.9365,1.1234928,9.55,1111122 
DISL,ioos:station:DISL:MHPA:1,2014-01-05T21:30:00Z,30.6671,-87.9365,1.1591544,9.8,1111122 
DISL,ioos:station:DISL:MHPA:1,2014-01-05T22:00:00Z,30.6671,-87.9365,1.19634,9.78,1111122 
DISL,ioos:station:DISL:MHPA:1,2014-01-05T22:30:00Z,30.6671,-87.9365,1.2249912,9.75,1111122 
DISL,ioos:station:DISL:MHPA:1,2014-01-05T23:00:00Z,30.6671,-87.9365,1.2557759,9.64,1111122 
DISL,ioos:station:DISL:MHPA:1,2014-01-05T23:30:00Z,30.6671,-87.9365,1.2899135,9.74,1111122 
DISL,ioos:station:DISL:MHPA:1,2014-01-06T00:00:00Z,30.6671,-87.9365,1.3292328,9.67,1111122 
DISL,ioos:station:DISL:MHPA:1,2014-01-06T00:30:00Z,30.6671,-87.9365,1.3575792,9.39,1111122 
DISL,ioos:station:DISL:MHPA:1,2014-01-06T01:00:00Z,30.6671,-87.9365,1.3523976,9.54,1111122 
DISL,ioos:station:DISL:MHPA:1,2014-01-06T01:30:00Z,30.6671,-87.9365,1.3773912,9.51,1111122 
DISL,ioos:station:DISL:MHPA:1,2014-01-06T02:00:00Z,30.6671,-87.9365,1.3953744,9.51,1111122 
DISL,ioos:station:DISL:MHPA:1,2014-01-06T02:30:00Z,30.6671,-87.9365,1.4161007,9.8,1111122 
DISL,ioos:station:DISL:MHPA:1,2014-01-06T03:00:00Z,30.6671,-87.9365,1.4221967,9.69,1111122 
DISL,ioos:station:DISL:MHPA:1,2014-01-06T03:30:00Z,30.6671,-87.9365,1.4057376,9.85,1111122 
DISL,ioos:station:DISL:MHPA:1,2014-01-06T04:00:00Z,30.6671,-87.9365,1.3868401,9.85,1111122 
DISL,ioos:station:DISL:MHPA:1,2014-01-06T04:30:00Z,30.6671,-87.9365,1.3749529,9.89,1111122 
DISL,ioos:station:DISL:MHPA:1,2014-01-06T05:00:00Z,30.6671,-87.9365,1.3225273,9.88,1111122 
DISL,ioos:station:DISL:MHPA:1,2014-01-06T05:30:00Z,30.6671,-87.9365,1.3307569,9.95,1111122 
DISL,ioos:station:DISL:MHPA:1,2014-01-06T06:00:00Z,30.6671,-87.9365,1.2554712,9.98,1111122 
DISL,ioos:station:DISL:MHPA:1,2014-01-06T06:30:00Z,30.6671,-87.9365,1.2027408,10.01,1111122 
DISL,ioos:station:DISL:MHPA:1,2014-01-06T07:00:00Z,30.6671,-87.9365,1.147572,10.07,1111122 
DISL,ioos:station:DISL:MHPA:1,2014-01-06T07:30:00Z,30.6671,-87.9365,1.0741152,10.13,1111122 
DISL,ioos:station:DISL:MHPA:1,2014-01-06T08:00:00Z,30.6671,-87.9365,1.0040112,10.09,1111122 
DISL,ioos:station:DISL:MHPA:1,2014-01-06T08:30:00Z,30.6671,-87.9365,0.9506712,10.09,1111122 
DISL,ioos:station:DISL:MHPA:1,2014-01-06T09:00:00Z,30.6671,-87.9365,0.91287595,10.16,1111122 
DISL,ioos:station:DISL:MHPA:1,2014-01-06T09:30:00Z,30.6671,-87.9365,0.8744712,10.27,1111122 
DISL,ioos:station:DISL:MHPA:1,2014-01-06T10:00:00Z,30.6671,-87.9365,0.8348472,10.28,1111122 
DISL,ioos:station:DISL:MHPA:1,2014-01-06T10:30:00Z,30.6671,-87.9365,0.8135112,10.4,1111122 
DISL,ioos:station:DISL:MHPA:1,2014-01-06T11:00:00Z,30.6671,-87.9365,0.7748016,10.43,1111122 
DISL,ioos:station:DISL:MHPA:1,2014-01-06T11:30:00Z,30.6671,-87.9365,0.7363968,10.46,1111122 
DISL,ioos:station:DISL:MHPA:1,2014-01-06T12:00:00Z,30.6671,-87.9365,0.7068312,10.55,1111122 
DISL,ioos:station:DISL:MHPA:1,2014-01-06T12:30:00Z,30.6671,-87.9365,0.6891528,10.58,1111122 
DISL,ioos:station:DISL:MHPA:1,2014-01-06T13:00:00Z,30.6671,-87.9365,0.6745224,10.68,1111122 
DISL,ioos:station:DISL:MHPA:1,2014-01-06T13:30:00Z,30.6671,-87.9365,0.66293997,10.74,1111122 
DISL,ioos:station:DISL:MHPA:1,2014-01-06T14:00:00Z,30.6671,-87.9365,0.65196717,10.72,1111122 
DISL,ioos:station:DISL:MHPA:1,2014-01-06T14:30:00Z,30.6671,-87.9365,0.64008,10.75,1111122 
DISL,ioos:station:DISL:MHPA:1,2014-01-06T15:00:00Z,30.6671,-87.9365,0.63093597,10.77,1111122 